Weather History for KY50 - March, 2013

Change the Weather History Date:

Sunday, March 17, 2013

  Actual Average (KPCZ) Record (KPCZ)
Temperature  
Mean Temperature 16 °F -  
Max Temperature 23 °F 43 °F 82 °F (2012)
Min Temperature 9 °F 21 °F 1 °F (1967)
Degree Days  
Heating Degree Days 49    
Moisture  
Dew Point 6 °F    
Average Humidity 63    
Maximum Humidity 77    
Minimum Humidity 52    
Precipitation  
Precipitation 0.00 in - - ()
Sea Level Pressure  
Sea Level Pressure 30.22 in    
Wind  
Wind Speed 0 mph (North)    
Max Wind Speed 0 mph    
Max Gust Speed -    
Visibility 10 miles    
Events      
Averages and records for this station are not official NWS values.
T = Trace of Precipitation, MM = Missing Value Source: NWS Daily Summary

Daily Weather History Graph

Daily Weather History Graph

Search for Another Location

Airport or City:

Trip Planner

Search our weather history database for the weather conditions in past years. The results will help you decide how hot, cold, wet, or windy it might be!

Date:

Astronomy

Mar. 17, 2013 Rise Set
Actual Time 7:05 AM CDT 7:06 PM CDT
Civil Twilight 6:36 AM CDT 7:35 PM CDT
Nautical Twilight 6:03 AM CDT 8:08 PM CDT
Astronomical Twilight 5:28 AM CDT 8:43 PM CDT
Moon 10:06 AM CDT (3/17) 12:25 AM CDT (3/17)
Length of Visible Light 12h 58m
Length of Day
12h 00m
Waxing Crescent, 31% of the Moon is Illuminated
Mar 17
Waxing Crescent
Mar 19
First Quarter
Mar 27
Full
Apr 2
Last Quarter
Apr 10
New

Hourly Weather History & Observations

Time (CDT) Temp. Dew Point Humidity Pressure Visibility Wind Dir Wind Speed Gust Speed Precip Events Conditions
12:56 AM 13.1 °F 6.1 °F 74% 30.19 in 10.0 mi Calm Calm - N/A   Clear
1:56 AM 13.1 °F 6.1 °F 74% 30.22 in 10.0 mi Calm Calm - N/A   Clear
2:56 AM 13.1 °F 4.1 °F 67% 30.23 in 10.0 mi Calm Calm - N/A   Clear
3:56 AM 13.1 °F 2.1 °F 62% 30.23 in 10.0 mi Calm Calm - N/A   Clear
4:56 AM 12.0 °F 2.1 °F 65% 30.23 in 10.0 mi Calm Calm - N/A   Clear
5:56 AM 10.0 °F 1.0 °F 67% 30.25 in 10.0 mi Calm Calm - N/A   Clear
6:56 AM 9.1 °F 0.1 °F 67% 30.27 in 10.0 mi Calm Calm - N/A   Clear
7:56 AM 9.1 °F 0.1 °F 67% 30.28 in 10.0 mi Calm Calm - N/A   Clear
8:56 AM 12.0 °F 1.0 °F 61% 30.32 in 10.0 mi Calm Calm - N/A   Clear
9:56 AM 13.1 °F 0.1 °F 56% 30.34 in 10.0 mi Calm Calm - N/A   Clear
10:56 AM 15.1 °F 1.0 °F 54% 30.34 in 10.0 mi Calm Calm - N/A   Clear
11:56 AM 17.1 °F 2.1 °F 52% 30.31 in 10.0 mi Calm Calm - N/A   Clear
12:56 PM 20.1 °F 5.0 °F 52% 30.29 in 10.0 mi Calm Calm - N/A   Clear
1:56 PM 21.0 °F 7.2 °F 55% 30.25 in 10.0 mi Calm Calm - N/A   Clear
2:56 PM 23.0 °F 9.1 °F 55% 30.22 in 10.0 mi Calm Calm - N/A   Clear
3:56 PM 23.0 °F 9.1 °F 55% 30.21 in 10.0 mi Calm Calm - N/A   Clear
4:56 PM 23.0 °F 10.0 °F 58% 30.19 in 10.0 mi Calm Calm - N/A   Clear
5:56 PM 23.0 °F 10.0 °F 58% 30.17 in 10.0 mi Calm Calm - N/A   Clear
6:56 PM 22.1 °F 10.0 °F 60% 30.15 in 10.0 mi Calm Calm - N/A   Clear
7:56 PM 20.1 °F 11.1 °F 68% 30.15 in 10.0 mi Calm Calm - N/A   Clear
8:56 PM 19.0 °F 10.0 °F 68% 30.14 in 10.0 mi Calm Calm - N/A   Clear
9:56 PM 18.1 °F 9.1 °F 68% 30.14 in 10.0 mi Calm Calm - N/A   Clear
10:56 PM 17.1 °F 9.1 °F 71% 30.10 in 10.0 mi Calm Calm - N/A   Clear
11:56 PM 15.1 °F 9.1 °F 77% 30.06 in 10.0 mi Calm Calm - N/A   Clear